SPDWR EPKK-EPKK

Flight info

Callsign SPDWR
Flight time 0h 40m
Altitude 2000
Route DCT
Aircraft DA42/L-SDFGRY/S

Departure

Time 2026-05-07 18:40
Airport Kraków John Paul II International Airport (EPKK)

Arrival

Time 2026-05-07 19:20
Airport Kraków John Paul II International Airport (EPKK)
Time Latitude Longitude Altitude Speed Heading
2026-05-07 18:18 50.07713 19.80277 794 ft 0 kts 347°
2026-05-07 18:32 50.07715 19.80276 794 ft 2 kts 348°
2026-05-07 18:32 50.07759 19.80267 794 ft 5 kts 15°
2026-05-07 18:33 50.07776 19.80320 795 ft 6 kts 57°
2026-05-07 18:33 50.07807 19.80348 795 ft 1 kts 346°
2026-05-07 18:33 50.07809 19.80347 795 ft 2 kts 344°
2026-05-07 18:33 50.07822 19.80343 795 ft 4 kts 349°
2026-05-07 18:34 50.07835 19.80339 795 ft 1 kts 347°
2026-05-07 18:34 50.07836 19.80339 795 ft 0 kts 347°
2026-05-07 18:35 50.07845 19.80336 795 ft 4 kts 349°
2026-05-07 18:35 50.07847 19.80335 795 ft 0 kts 348°
2026-05-07 18:36 50.07850 19.80334 795 ft 0 kts 347°
2026-05-07 18:37 50.07851 19.80334 795 ft 1 kts 347°
2026-05-07 18:37 50.07909 19.80315 794 ft 15 kts 347°
2026-05-07 18:37 50.08001 19.80274 794 ft 11 kts 314°
2026-05-07 18:38 50.08014 19.80209 795 ft 0 kts 257°
2026-05-07 18:39 50.08010 19.80183 795 ft 18 kts 258°
2026-05-07 18:39 50.07936 19.79647 796 ft 78 kts 258°
2026-05-07 18:39 50.07813 19.78711 986 ft 91 kts 257°
2026-05-07 18:40 50.07672 19.77739 1325 ft 94 kts 253°
2026-05-07 18:40 50.07649 19.76681 1621 ft 105 kts 290°
2026-05-07 18:40 50.08199 19.75965 1916 ft 112 kts 348°
2026-05-07 18:40 50.08986 19.75881 2061 ft 114 kts 352°
2026-05-07 18:41 50.09802 19.75734 2102 ft 121 kts 351°
2026-05-07 18:41 50.10661 19.75632 2146 ft 126 kts 356°
2026-05-07 18:41 50.11556 19.75523 2105 ft 134 kts 353°
2026-05-07 18:41 50.12489 19.75422 2110 ft 135 kts 356°
2026-05-07 18:42 50.13372 19.75922 2025 ft 144 kts 43°
2026-05-07 18:42 50.13681 19.77376 1979 ft 145 kts 87°
2026-05-07 18:42 50.13632 19.78896 2007 ft 140 kts 94°
2026-05-07 18:42 50.13384 19.80359 1911 ft 144 kts 130°
2026-05-07 18:43 50.12503 19.80870 1894 ft 139 kts 192°
2026-05-07 18:43 50.11747 19.79992 1856 ft 136 kts 242°
2026-05-07 18:43 50.11512 19.78589 1910 ft 130 kts 260°
2026-05-07 18:43 50.11361 19.77221 1992 ft 128 kts 258°
2026-05-07 18:44 50.11138 19.75877 1992 ft 133 kts 262°
2026-05-07 18:44 50.11360 19.74493 1902 ft 138 kts 306°
2026-05-07 18:44 50.12176 19.73894 1991 ft 135 kts
2026-05-07 18:44 50.12826 19.74868 1975 ft 137 kts 72°
2026-05-07 18:45 50.12760 19.76270 2048 ft 135 kts 110°
2026-05-07 18:45 50.12352 19.77632 1953 ft 141 kts 115°
2026-05-07 18:45 50.11862 19.78956 1908 ft 140 kts 123°
2026-05-07 18:45 50.11385 19.80304 1838 ft 142 kts 112°
2026-05-07 18:46 50.11258 19.81790 1854 ft 137 kts 88°
2026-05-07 18:46 50.11388 19.83261 1835 ft 136 kts 69°
2026-05-07 18:46 50.12067 19.84101 1903 ft 127 kts
2026-05-07 18:46 50.12725 19.83376 1864 ft 128 kts 281°
2026-05-07 18:47 50.12248 19.82329 1802 ft 134 kts 188°
2026-05-07 18:47 50.11576 19.83086 1823 ft 134 kts 98°
2026-05-07 18:47 50.12062 19.84109 1878 ft 126 kts
2026-05-07 18:47 50.12571 19.83295 1961 ft 118 kts 261°
2026-05-07 18:48 50.11994 19.82537 2091 ft 117 kts 185°
2026-05-07 18:48 50.11302 19.83202 2074 ft 131 kts 114°
2026-05-07 18:48 50.11514 19.84460 2052 ft 132 kts 30°
2026-05-07 18:48 50.12289 19.84166 1994 ft 131 kts 296°
2026-05-07 18:49 50.11978 19.83007 1957 ft 135 kts 197°
2026-05-07 18:49 50.11236 19.83644 1988 ft 134 kts 112°
2026-05-07 18:49 50.10785 19.84981 1790 ft 139 kts 135°
2026-05-07 18:49 50.09950 19.85618 1623 ft 133 kts 173°
2026-05-07 18:50 50.09077 19.85345 1415 ft 129 kts 210°
2026-05-07 18:50 50.08521 19.84330 1347 ft 122 kts 252°
2026-05-07 18:50 50.08399 19.83040 1283 ft 122 kts 261°
2026-05-07 18:50 50.08228 19.81730 1163 ft 127 kts 255°
2026-05-07 18:51 50.08045 19.80391 980 ft 132 kts 256°
2026-05-07 18:51 50.07841 19.78997 823 ft 122 kts 256°
2026-05-07 18:51 50.07665 19.77718 833 ft 128 kts 256°
2026-05-07 18:51 50.07571 19.76459 1377 ft 106 kts 279°
2026-05-07 18:52 50.07956 19.75506 1757 ft 109 kts 322°
2026-05-07 18:52 50.08674 19.75136 2022 ft 114 kts 352°
2026-05-07 18:52 50.09505 19.75014 1956 ft 128 kts 354°
2026-05-07 18:52 50.10404 19.75133 1908 ft 136 kts 28°
2026-05-07 18:53 50.10895 19.76329 1950 ft 138 kts 76°
2026-05-07 18:53 50.11094 19.77824 1920 ft 143 kts 76°
2026-05-07 18:53 50.11299 19.79344 1889 ft 144 kts 76°
2026-05-07 18:53 50.11501 19.80873 1790 ft 142 kts 78°
2026-05-07 18:54 50.11693 19.82365 1701 ft 137 kts 79°
2026-05-07 18:54 50.11727 19.83797 1646 ft 133 kts 108°
2026-05-07 18:54 50.11144 19.84825 1666 ft 127 kts 152°
2026-05-07 18:54 50.10304 19.85203 1637 ft 127 kts 173°
2026-05-07 18:55 50.09397 19.85256 1527 ft 132 kts 187°
2026-05-07 18:55 50.08642 19.84567 1449 ft 123 kts 239°
2026-05-07 18:55 50.08455 19.83410 1281 ft 98 kts 260°
2026-05-07 18:55 50.08327 19.82478 1171 ft 86 kts 257°
2026-05-07 18:56 50.08204 19.81574 1067 ft 86 kts 258°
2026-05-07 18:56 50.08078 19.80661 946 ft 87 kts 257°
2026-05-07 18:56 50.07946 19.79730 858 ft 91 kts 255°
2026-05-07 18:56 50.07806 19.78738 853 ft 101 kts 256°
2026-05-07 18:57 50.07638 19.77503 900 ft 127 kts 258°
2026-05-07 18:57 50.07560 19.76254 1418 ft 107 kts 283°
2026-05-07 18:57 50.07976 19.75351 1800 ft 107 kts 320°
2026-05-07 18:57 50.08679 19.74825 2015 ft 117 kts 343°
2026-05-07 18:58 50.09499 19.74611 2051 ft 123 kts 356°
2026-05-07 18:58 50.10333 19.74943 2062 ft 129 kts 31°
2026-05-07 18:58 50.10922 19.76004 2069 ft 133 kts 69°
2026-05-07 18:58 50.11039 19.77405 2141 ft 131 kts 82°
2026-05-07 18:59 50.11193 19.78867 2120 ft 142 kts 77°
2026-05-07 18:59 50.11343 19.80376 2206 ft 142 kts 81°
2026-05-07 18:59 50.11461 19.81978 2045 ft 153 kts 80°
2026-05-07 18:59 50.11591 19.83599 2079 ft 149 kts 81°
2026-05-07 19:00 50.11736 19.85191 2010 ft 148 kts 82°
2026-05-07 19:00 50.11852 19.86756 2032 ft 143 kts 84°
2026-05-07 19:00 50.11768 19.88259 2008 ft 141 kts 117°
2026-05-07 19:00 50.11019 19.89145 1980 ft 139 kts 168°
2026-05-07 19:01 50.10047 19.89108 1893 ft 141 kts 183°
2026-05-07 19:01 50.09190 19.88505 1817 ft 139 kts 239°
2026-05-07 19:01 50.08956 19.87057 1744 ft 139 kts 262°
2026-05-07 19:01 50.08788 19.85611 1580 ft 127 kts 258°
2026-05-07 19:02 50.08616 19.84412 1402 ft 105 kts 257°
2026-05-07 19:02 50.08465 19.83404 1266 ft 86 kts 257°
2026-05-07 19:02 50.08335 19.82512 1155 ft 83 kts 257°
2026-05-07 19:02 50.08213 19.81618 1075 ft 84 kts 257°
2026-05-07 19:03 50.08143 19.80735 1137 ft 82 kts 277°
2026-05-07 19:03 50.08318 19.79903 1403 ft 86 kts 286°
2026-05-07 19:03 50.08566 19.78977 1647 ft 98 kts 305°
2026-05-07 19:03 50.09132 19.78325 1924 ft 110 kts 336°
2026-05-07 19:04 50.09885 19.77926 2118 ft 112 kts 337°
2026-05-07 19:04 50.10489 19.77186 2172 ft 119 kts 295°
2026-05-07 19:04 50.10599 19.75865 2196 ft 127 kts 265°
2026-05-07 19:04 50.10668 19.74463 2132 ft 135 kts 294°
2026-05-07 19:05 50.11396 19.73653 2102 ft 138 kts 360°
2026-05-07 19:05 50.12113 19.74504 2119 ft 141 kts 72°
2026-05-07 19:05 50.12259 19.76017 2118 ft 141 kts 76°
2026-05-07 19:05 50.12459 19.77512 2127 ft 141 kts 79°
2026-05-07 19:06 50.12546 19.79021 2124 ft 141 kts 100°
2026-05-07 19:06 50.11048 19.79633 2008 ft 143 kts 232°
2026-05-07 19:06 50.10887 19.78181 2011 ft 140 kts 272°
2026-05-07 19:07 50.10899 19.76697 2083 ft 135 kts 265°
2026-05-07 19:07 50.10827 19.75212 2034 ft 140 kts 265°
2026-05-07 19:07 50.10944 19.73741 2004 ft 139 kts 300°
2026-05-07 19:07 50.11735 19.72974 2003 ft 139 kts 354°
2026-05-07 19:08 50.12618 19.73498 1985 ft 143 kts 48°
2026-05-07 19:08 50.12944 19.74934 2005 ft 141 kts 80°
2026-05-07 19:08 50.13076 19.76440 2026 ft 140 kts 84°
2026-05-07 19:08 50.13041 19.77952 2018 ft 140 kts 109°
2026-05-07 19:09 50.12421 19.79034 2029 ft 137 kts 156°
2026-05-07 19:09 50.11490 19.79057 1937 ft 139 kts 205°
2026-05-07 19:09 50.10947 19.77929 1992 ft 130 kts 256°
2026-05-07 19:09 50.10763 19.76544 1996 ft 131 kts 261°
2026-05-07 19:10 50.10693 19.75147 2007 ft 130 kts 285°
2026-05-07 19:10 50.11335 19.74273 2010 ft 130 kts 354°
2026-05-07 19:10 50.12041 19.75002 2071 ft 129 kts 69°
2026-05-07 19:10 50.12204 19.76443 1967 ft 138 kts 83°
2026-05-07 19:11 50.12304 19.77925 1975 ft 138 kts 85°
2026-05-07 19:11 50.12184 19.79391 1917 ft 137 kts 120°
2026-05-07 19:11 50.11412 19.80074 1904 ft 135 kts 186°
2026-05-07 19:11 50.10817 19.79139 1932 ft 129 kts 265°
2026-05-07 19:12 50.10732 19.77782 1964 ft 128 kts 261°
2026-05-07 19:12 50.10673 19.76383 1944 ft 130 kts 284°
2026-05-07 19:12 50.11272 19.75407 1927 ft 134 kts 341°
2026-05-07 19:12 50.12174 19.75575 1934 ft 134 kts 31°
2026-05-07 19:13 50.12644 19.76800 1919 ft 136 kts 80°
2026-05-07 19:13 50.12775 19.78256 1928 ft 136 kts 82°
2026-05-07 19:13 50.12774 19.79736 1888 ft 138 kts 106°
2026-05-07 19:13 50.12186 19.80827 1896 ft 135 kts 157°
2026-05-07 19:14 50.11314 19.80710 1980 ft 128 kts 211°
2026-05-07 19:14 50.10910 19.79567 1994 ft 126 kts 269°
2026-05-07 19:14 50.10945 19.78204 2041 ft 126 kts 269°
2026-05-07 19:14 50.10883 19.76831 2040 ft 129 kts 264°
2026-05-07 19:15 50.10803 19.75427 2053 ft 130 kts 264°
2026-05-07 19:15 50.10949 19.74061 2033 ft 131 kts 301°
2026-05-07 19:15 50.11682 19.73281 2032 ft 133 kts 351°
2026-05-07 19:15 50.12463 19.73906 1970 ft 141 kts 70°
2026-05-07 19:16 50.12133 19.75225 1991 ft 136 kts 133°
2026-05-07 19:16 50.11467 19.76296 1934 ft 136 kts 134°
2026-05-07 19:16 50.11082 19.77060 1974 ft 131 kts 118°
2026-05-07 19:16 50.10875 19.78417 1988 ft 129 kts 96°
2026-05-07 19:17 50.10907 19.79807 2000 ft 128 kts 83°
2026-05-07 19:17 50.11000 19.81198 1962 ft 130 kts 84°
2026-05-07 19:17 50.11076 19.82600 1937 ft 130 kts 85°
2026-05-07 19:17 50.11063 19.84007 1880 ft 132 kts 93°
2026-05-07 19:18 50.10728 19.85290 1848 ft 129 kts 137°
2026-05-07 19:18 50.09901 19.85647 1761 ft 127 kts 194°
2026-05-07 19:18 50.09168 19.84899 1621 ft 127 kts 222°
2026-05-07 19:18 50.08620 19.83889 1459 ft 121 kts 240°
2026-05-07 19:19 50.08357 19.82688 1230 ft 109 kts 260°
2026-05-07 19:19 50.08231 19.81613 1116 ft 91 kts 258°
2026-05-07 19:19 50.08099 19.80730 929 ft 80 kts 257°
2026-05-07 19:19 50.07970 19.79902 811 ft 78 kts 258°
2026-05-07 19:20 50.07872 19.79187 795 ft 51 kts 258°
2026-05-07 19:20 50.07832 19.78993 796 ft 6 kts 133°
2026-05-07 19:20 50.07803 19.79068 795 ft 10 kts 155°
2026-05-07 19:20 50.07735 19.79092 795 ft 10 kts 167°
2026-05-07 19:21 50.07665 19.79117 795 ft 6 kts 167°
2026-05-07 19:21 50.07651 19.79121 794 ft 8 kts 169°
2026-05-07 19:21 50.07619 19.79203 794 ft 13 kts 77°
2026-05-07 19:21 50.07643 19.79374 794 ft 17 kts 78°
2026-05-07 19:22 50.07667 19.79547 794 ft 16 kts 77°
2026-05-07 19:22 50.07690 19.79708 794 ft 15 kts 77°
2026-05-07 19:22 50.07705 19.79845 794 ft 8 kts 108°
2026-05-07 19:22 50.07676 19.79879 794 ft 7 kts 171°
2026-05-07 19:23 50.07618 19.79901 794 ft 10 kts 145°
2026-05-07 19:23 50.07615 19.80012 794 ft 12 kts 79°
2026-05-07 19:23 50.07631 19.80126 794 ft 7 kts 74°
2026-05-07 19:23 50.07685 19.80123 794 ft 9 kts 348°
2026-05-07 19:24 50.07700 19.80117 794 ft 0 kts 346°